Precipitable_Water
1.39 1.28 1.31 1.35 1.35 1.38 1.41 1.42 1.40 1.37 1.37 1.39 1.39 1.40 1.38 1.40 1.38 1.32 1.25 1.25 1.28 1.30 1.30 1.32 1.34 1.34 1.29 1.21 1.18 1.12 1.07 1.02 1.02 1.05 1.05 1.04 1.04 1.04 1.04 1.08 1.15 1.20 1.20 1.20 1.16 1.13 1.12 1.11 1.11 1.05 1.04 1.05 1.09 1.08 1.05 1.09 1.03 1.02 1.03 0.97 0.92 0.88 0.83 0.76 0.73 0.74 0.76 0.77 0.79 0.77 0.79 0.81 0.82 0.88 0.85 0.83 0.82 0.85 0.83 0.79 0.81 0.88 0.94 1.05 1.16
1.39 1.36 1.36 1.36 1.37 1.40 1.41 1.41 1.40 1.39 1.39 1.39 1.40 1.39 1.39 1.40 1.37 1.31 1.26 1.27 1.29 1.31 1.31 1.33 1.35 1.35 1.31 1.24 1.16 1.09 1.07 1.06 1.07 1.08 1.07 1.05 1.05 1.07 1.08 1.08 1.14 1.22 1.24 1.27 1.24 1.19 1.15 1.11 1.05 1.02 1.05 1.08 1.08 1.14 1.16 1.10 1.05 1.02 1.00 0.95 0.85 0.84 0.88 0.88 0.84 0.82 0.85 0.84 0.76 0.71 0.77 0.84 0.86 0.85 0.80 0.72 0.72 0.83 0.86 0.85 0.79 0.83 0.90 0.99 1.11
1.43 1.35 1.40 1.38 1.38 1.42 1.43 1.41 1.39 1.40 1.40 1.40 1.39 1.39 1.40 1.40 1.37 1.31 1.28 1.29 1.29 1.30 1.34 1.38 1.39 1.37 1.33 1.26 1.16 1.08 1.06 1.06 1.06 1.07 1.08 1.07 1.10 1.16 1.20 1.16 1.13 1.21 1.28 1.29 1.28 1.20 1.16 1.13 1.10 1.09 1.10 1.09 1.09 1.10 1.11 1.06 1.03 1.00 0.96 0.88 0.86 0.91 0.94 0.98 0.98 0.96 0.91 0.88 0.87 0.82 0.77 0.78 0.86 0.93 0.88 0.77 0.79 0.81 0.84 0.83 0.80 0.80 0.83 0.89 1.03
1.39 1.38 1.41 1.42 1.42 1.41 1.43 1.42 1.39 1.37 1.38 1.41 1.40 1.38 1.39 1.39 1.36 1.34 1.29 1.28 1.30 1.34 1.38 1.43 1.44 1.40 1.32 1.25 1.19 1.12 1.08 1.08 1.07 1.09 1.11 1.14 1.18 1.23 1.26 1.25 1.20 1.16 1.20 1.24 1.22 1.18 1.15 1.14 1.10 1.07 1.07 1.07 1.07 1.08 1.05 1.03 0.99 0.98 0.93 0.95 1.00 1.00 1.02 1.02 1.03 1.03 1.04 1.00 0.95 0.91 0.83 0.75 0.84 0.91 0.90 0.82 0.75 0.79 0.81 0.83 0.86 0.88 0.89 0.91 0.98
1.46 1.47 1.45 1.45 1.42 1.43 1.42 1.41 1.38 1.35 1.36 1.39 1.41 1.39 1.38 1.37 1.38 1.36 1.28 1.27 1.31 1.37 1.44 1.50 1.48 1.42 1.32 1.22 1.19 1.16 1.12 1.11 1.12 1.14 1.19 1.25 1.29 1.29 1.31 1.33 1.30 1.25 1.19 1.18 1.19 1.18 1.17 1.13 1.10 1.05 1.03 1.07 1.06 1.04 1.03 1.00 0.96 0.94 0.95 0.99 1.01 1.03 1.05 1.08 1.09 1.11 1.12 1.11 1.08 0.97 0.92 0.84 0.82 0.88 0.87 0.89 0.81 0.77 0.81 0.83 0.82 0.83 0.88 0.94 0.95
1.52 1.46 1.47 1.44 1.42 1.41 1.39 1.38 1.37 1.35 1.35 1.37 1.40 1.40 1.39 1.38 1.38 1.34 1.30 1.28 1.32 1.40 1.51 1.56 1.47 1.38 1.29 1.22 1.18 1.16 1.16 1.14 1.15 1.15 1.17 1.21 1.26 1.29 1.31 1.36 1.37 1.30 1.23 1.18 1.16 1.17 1.14 1.13 1.08 1.04 1.02 1.03 1.03 1.03 1.02 0.97 0.96 0.93 0.95 0.99 1.04 1.06 1.09 1.12 1.16 1.19 1.17 1.17 1.13 1.13 1.00 0.91 0.85 0.82 0.89 0.90 0.85 0.79 0.78 0.81 0.82 0.84 0.86 0.86 0.89
1.50 1.41 1.40 1.39 1.38 1.41 1.40 1.38 1.38 1.35 1.34 1.36 1.38 1.39 1.39 1.39 1.36 1.32 1.31 1.32 1.37 1.47 1.58 1.57 1.42 1.31 1.24 1.22 1.21 1.21 1.19 1.19 1.17 1.17 1.17 1.19 1.21 1.25 1.28 1.31 1.35 1.32 1.21 1.18 1.17 1.17 1.16 1.13 1.08 1.04 1.02 1.02 1.02 0.99 0.98 0.96 0.93 0.90 0.95 1.00 1.03 1.08 1.11 1.15 1.23 1.23 1.23 1.23 1.21 1.18 1.03 0.94 0.87 0.85 0.89 0.91 0.90 0.81 0.74 0.81 0.84 0.81 0.79 0.82 0.87
1.40 1.35 1.36 1.37 1.39 1.41 1.40 1.39 1.36 1.35 1.34 1.36 1.39 1.39 1.38 1.38 1.35 1.35 1.33 1.35 1.45 1.56 1.58 1.51 1.35 1.24 1.24 1.25 1.25 1.24 1.25 1.25 1.24 1.23 1.18 1.15 1.17 1.21 1.24 1.25 1.27 1.23 1.18 1.18 1.16 1.16 1.16 1.15 1.10 1.05 1.04 1.05 1.01 0.99 0.97 0.95 0.92 0.88 0.93 0.99 1.04 1.06 1.13 1.18 1.24 1.22 1.20 1.23 1.24 1.19 1.03 0.98 0.87 0.83 0.94 0.94 0.89 0.83 0.73 0.76 0.80 0.82 0.82 0.81 0.82
1.35 1.33 1.37 1.36 1.40 1.42 1.41 1.38 1.36 1.36 1.36 1.37 1.38 1.38 1.40 1.38 1.36 1.37 1.37 1.41 1.53 1.61 1.54 1.37 1.26 1.26 1.30 1.28 1.28 1.26 1.26 1.28 1.31 1.29 1.26 1.21 1.16 1.17 1.17 1.19 1.16 1.17 1.18 1.16 1.15 1.15 1.15 1.16 1.12 1.08 1.07 1.04 1.00 0.98 0.97 0.94 0.90 0.92 0.97 1.01 1.07 1.11 1.12 1.18 1.21 1.26 1.26 1.28 1.27 1.09 1.06 0.95 0.88 0.83 0.91 0.96 0.95 0.89 0.80 0.76 0.76 0.77 0.76 0.74 0.78
1.33 1.34 1.38 1.39 1.38 1.42 1.41 1.38 1.37 1.38 1.40 1.39 1.41 1.42 1.41 1.40 1.39 1.41 1.43 1.49 1.59 1.55 1.42 1.28 1.27 1.35 1.35 1.35 1.35 1.32 1.31 1.32 1.32 1.33 1.33 1.30 1.24 1.15 1.12 1.12 1.13 1.15 1.16 1.15 1.14 1.14 1.14 1.16 1.14 1.11 1.08 1.02 0.99 1.01 0.98 0.94 0.92 0.95 0.99 1.03 1.07 1.09 1.13 1.15 1.18 1.14 1.15 1.23 1.03 1.15 1.02 0.94 0.87 0.83 0.90 0.96 0.94 0.90 0.79 0.76 0.78 0.78 0.78 0.77 0.74
1.31 1.37 1.42 1.39 1.39 1.40 1.40 1.40 1.40 1.41 1.42 1.43 1.43 1.43 1.43 1.43 1.46 1.46 1.49 1.57 1.52 1.37 1.29 1.30 1.37 1.43 1.45 1.47 1.48 1.46 1.47 1.46 1.44 1.44 1.46 1.42 1.33 1.25 1.18 1.17 1.19 1.17 1.16 1.14 1.12 1.14 1.16 1.17 1.19 1.16 1.07 1.03 1.05 1.02 0.98 0.96 0.94 0.95 0.98 1.03 1.04 1.10 1.15 1.19 1.19 1.11 1.08 1.01 1.00 1.04 1.05 0.99 0.87 0.85 0.91 0.91 0.91 0.84 0.80 0.79 0.79 0.80 0.79 0.79 0.78
1.32 1.38 1.46 1.40 1.39 1.40 1.41 1.42 1.42 1.44 1.45 1.46 1.47 1.47 1.47 1.47 1.48 1.49 1.54 1.47 1.33 1.27 1.33 1.38 1.46 1.50 1.53 1.54 1.54 1.55 1.55 1.55 1.53 1.53 1.55 1.49 1.42 1.38 1.28 1.21 1.19 1.19 1.16 1.14 1.14 1.14 1.17 1.21 1.22 1.17 1.11 1.06 1.09 1.08 1.04 1.02 0.99 0.99 1.01 1.05 1.06 1.13 1.16 1.23 1.24 1.20 1.16 1.11 1.05 1.06 1.00 0.93 0.90 0.90 0.91 0.88 0.85 0.84 0.82 0.83 0.80 0.80 0.80 0.80 0.80
1.34 1.38 1.48 1.41 1.40 1.43 1.43 1.45 1.46 1.47 1.48 1.48 1.50 1.49 1.49 1.47 1.47 1.50 1.45 1.32 1.30 1.33 1.40 1.47 1.53 1.57 1.57 1.56 1.55 1.57 1.59 1.59 1.58 1.57 1.56 1.51 1.44 1.46 1.41 1.28 1.21 1.19 1.17 1.16 1.16 1.17 1.17 1.18 1.22 1.19 1.14 1.08 1.08 1.07 1.06 1.02 1.01 1.02 1.00 1.06 1.10 1.14 1.17 1.20 1.22 1.19 1.18 1.16 1.04 1.03 1.00 0.94 0.92 0.96 0.94 0.92 0.88 0.85 0.80 0.82 0.82 0.81 0.79 0.78 0.80
1.35 1.43 1.51 1.38 1.42 1.45 1.45 1.46 1.49 1.49 1.49 1.50 1.50 1.50 1.48 1.50 1.50 1.44 1.35 1.34 1.37 1.41 1.47 1.54 1.59 1.61 1.58 1.58 1.58 1.55 1.58 1.58 1.59 1.61 1.62 1.55 1.47 1.48 1.51 1.45 1.34 1.24 1.22 1.18 1.19 1.19 1.20 1.22 1.20 1.17 1.13 1.08 1.05 1.04 1.02 1.03 1.01 1.01 1.01 1.03 1.07 1.08 1.10 1.20 1.25 1.21 1.09 1.16 1.12 1.06 0.93 0.91 0.98 1.01 0.99 0.97 0.93 0.89 0.81 0.80 0.81 0.81 0.81 0.80 0.77
1.44 1.51 1.50 1.40 1.44 1.47 1.48 1.49 1.52 1.55 1.57 1.57 1.56 1.57 1.55 1.54 1.50 1.42 1.39 1.42 1.44 1.48 1.56 1.63 1.66 1.63 1.61 1.59 1.62 1.58 1.56 1.56 1.53 1.58 1.62 1.48 1.45 1.44 1.50 1.49 1.44 1.36 1.26 1.21 1.22 1.22 1.22 1.24 1.20 1.18 1.15 1.12 1.08 1.04 1.03 1.02 1.00 1.00 0.98 1.02 1.07 1.10 1.12 1.18 1.20 1.10 1.07 1.13 1.12 1.03 0.97 0.89 0.98 1.03 1.01 0.96 0.90 0.90 0.86 0.79 0.75 0.78 0.79 0.78 0.78
1.53 1.52 1.47 1.41 1.43 1.49 1.51 1.53 1.56 1.60 1.65 1.65 1.66 1.62 1.61 1.57 1.52 1.49 1.49 1.50 1.53 1.61 1.67 1.72 1.72 1.66 1.63 1.63 1.63 1.57 1.56 1.53 1.54 1.54 1.54 1.42 1.39 1.40 1.40 1.38 1.35 1.31 1.28 1.20 1.19 1.19 1.21 1.21 1.22 1.20 1.16 1.12 1.09 1.06 1.03 1.01 1.00 0.96 0.98 1.00 1.08 1.13 1.15 1.19 1.27 1.17 1.19 1.19 1.15 1.09 1.01 0.95 1.00 1.02 1.00 0.97 0.92 0.90 0.89 0.87 0.80 0.81 0.80 0.79 0.80
1.53 1.51 1.45 1.42 1.44 1.47 1.51 1.54 1.58 1.64 1.67 1.71 1.71 1.65 1.64 1.60 1.54 1.56 1.57 1.60 1.66 1.70 1.73 1.77 1.74 1.66 1.62 1.63 1.60 1.57 1.53 1.48 1.46 1.49 1.48 1.36 1.36 1.38 1.39 1.34 1.29 1.24 1.18 1.15 1.09 1.08 1.10 1.11 1.14 1.14 1.12 1.10 1.08 1.04 1.03 1.01 0.97 0.97 1.00 1.01 1.10 1.16 1.20 1.24 1.27 1.25 1.20 1.18 1.14 1.12 0.92 0.91 0.97 1.01 1.00 0.96 0.95 0.92 0.91 0.89 0.84 0.82 0.82 0.79 0.77
1.51 1.50 1.44 1.41 1.43 1.45 1.48 1.56 1.64 1.67 1.68 1.70 1.67 1.68 1.65 1.60 1.60 1.62 1.66 1.71 1.75 1.75 1.76 1.77 1.71 1.62 1.59 1.57 1.55 1.53 1.49 1.47 1.49 1.51 1.49 1.45 1.47 1.49 1.49 1.45 1.32 1.20 1.11 1.08 1.06 0.99 0.97 1.02 1.07 1.11 1.08 1.04 1.05 1.03 1.01 0.99 0.97 0.98 1.01 1.05 1.12 1.17 1.20 1.22 1.24 1.22 1.26 1.22 1.18 1.10 0.99 0.98 0.94 0.97 0.99 0.98 0.97 0.96 0.94 0.90 0.87 0.81 0.79 0.77 0.76
1.54 1.49 1.48 1.41 1.40 1.48 1.50 1.57 1.66 1.70 1.72 1.70 1.71 1.69 1.63 1.64 1.65 1.68 1.71 1.75 1.74 1.74 1.76 1.74 1.67 1.61 1.53 1.48 1.52 1.51 1.49 1.52 1.57 1.59 1.51 1.51 1.51 1.51 1.50 1.44 1.30 1.22 1.16 1.11 1.09 1.07 0.99 0.97 1.00 1.03 1.04 1.01 1.02 1.02 1.00 1.00 0.97 0.97 1.02 1.07 1.14 1.17 1.18 1.22 1.17 1.15 1.22 1.28 1.24 1.15 1.07 0.98 0.96 0.96 0.99 0.99 0.99 0.97 0.92 0.89 0.89 0.85 0.76 0.77 0.79
1.56 1.54 1.50 1.44 1.43 1.48 1.54 1.69 1.77 1.82 1.77 1.73 1.71 1.68 1.66 1.67 1.70 1.69 1.68 1.69 1.69 1.75 1.72 1.70 1.65 1.56 1.49 1.51 1.49 1.51 1.52 1.60 1.60 1.59 1.58 1.54 1.51 1.52 1.49 1.37 1.29 1.26 1.24 1.20 1.14 1.09 1.05 0.99 0.94 0.94 0.99 1.00 0.98 0.99 1.01 1.00 0.96 1.01 1.04 1.08 1.11 1.17 1.21 1.21 1.28 1.19 1.19 1.21 1.20 1.17 1.12 1.04 1.01 1.01 1.02 1.00 0.96 0.95 0.94 0.93 0.91 0.88 0.84 0.78 0.75
1.52 1.54 1.55 1.57 1.62 1.67 1.80 1.81 1.78 1.80 1.70 1.69 1.69 1.68 1.70 1.70 1.71 1.71 1.69 1.68 1.67 1.66 1.66 1.62 1.58 1.49 1.48 1.46 1.45 1.44 1.45 1.44 1.42 1.44 1.43 1.45 1.49 1.49 1.43 1.34 1.30 1.28 1.27 1.25 1.22 1.17 1.09 1.02 0.96 0.93 0.93 0.98 1.00 1.00 1.01 0.99 0.97 1.02 1.05 1.05 1.12 1.14 1.22 1.25 1.13 1.20 1.17 1.22 1.21 1.20 1.14 1.08 1.05 1.06 1.02 0.98 1.00 0.97 0.97 0.93 0.92 0.92 0.89 0.82 0.78
1.48 1.52 1.59 1.62 1.67 1.66 1.78 1.73 1.74 1.75 1.76 1.69 1.67 1.64 1.70 1.70 1.68 1.69 1.69 1.65 1.60 1.58 1.53 1.51 1.48 1.44 1.42 1.41 1.43 1.46 1.46 1.44 1.43 1.48 1.45 1.50 1.45 1.43 1.36 1.32 1.29 1.28 1.25 1.23 1.20 1.20 1.20 1.10 1.01 0.96 0.94 0.95 0.98 0.99 1.00 1.00 0.97 0.98 1.02 1.04 1.07 1.12 1.18 1.20 1.19 1.21 1.18 1.19 1.18 1.19 1.16 1.11 1.07 1.07 1.05 1.00 0.96 0.98 0.98 0.99 0.98 0.95 0.91 0.85 0.79
1.41 1.43 1.54 1.62 1.70 1.71 1.71 1.73 1.73 1.80 1.78 1.70 1.72 1.70 1.68 1.63 1.59 1.65 1.63 1.61 1.55 1.47 1.47 1.49 1.49 1.43 1.42 1.45 1.49 1.50 1.45 1.46 1.48 1.45 1.43 1.49 1.48 1.40 1.34 1.32 1.31 1.28 1.27 1.24 1.24 1.20 1.16 1.17 1.12 1.04 1.01 0.97 0.96 0.95 0.97 0.92 0.97 1.00 1.00 1.01 1.02 1.14 1.15 1.22 1.19 1.19 1.17 1.21 1.20 1.21 1.16 1.10 1.10 1.08 1.04 1.00 1.00 0.98 0.96 0.98 0.96 0.94 0.93 0.88 0.81
1.34 1.43 1.47 1.57 1.66 1.74 1.76 1.76 1.71 1.72 1.66 1.68 1.66 1.62 1.60 1.55 1.56 1.60 1.58 1.50 1.49 1.51 1.48 1.49 1.45 1.45 1.45 1.50 1.51 1.50 1.51 1.51 1.52 1.49 1.51 1.53 1.50 1.44 1.39 1.35 1.35 1.33 1.30 1.28 1.25 1.24 1.21 1.18 1.17 1.18 1.17 1.09 1.02 0.99 0.99 1.05 0.93 0.98 1.00 1.03 1.02 1.12 1.17 1.17 1.18 1.21 1.24 1.23 1.21 1.18 1.12 1.10 1.12 1.09 1.03 1.01 1.00 1.01 0.99 0.96 1.00 0.99 0.93 0.86 0.81
1.37 1.43 1.46 1.47 1.57 1.60 1.61 1.64 1.70 1.65 1.64 1.63 1.61 1.57 1.57 1.57 1.57 1.56 1.52 1.49 1.52 1.52 1.49 1.48 1.47 1.45 1.47 1.52 1.53 1.54 1.55 1.55 1.51 1.49 1.50 1.52 1.49 1.43 1.42 1.39 1.35 1.34 1.33 1.28 1.36 1.32 1.26 1.25 1.17 1.19 1.22 1.26 1.18 1.13 1.10 1.12 1.09 0.97 1.01 1.03 1.07 1.12 1.22 1.23 1.19 1.27 1.21 1.22 1.19 1.15 1.09 1.11 1.11 1.08 1.04 1.00 1.02 1.03 1.00 0.98 0.96 0.95 0.92 0.84 0.79
1.45 1.38 1.37 1.42 1.49 1.54 1.58 1.59 1.61 1.66 1.67 1.60 1.53 1.56 1.57 1.50 1.49 1.52 1.49 1.52 1.54 1.51 1.50 1.49 1.49 1.49 1.52 1.54 1.54 1.50 1.50 1.48 1.46 1.48 1.48 1.50 1.49 1.49 1.46 1.43 1.43 1.45 1.47 1.39 1.47 1.51 1.45 1.51 1.48 1.33 1.29 1.27 1.30 1.26 1.15 1.15 1.12 1.07 1.03 1.06 1.08 1.18 1.26 1.26 1.24 1.27 1.27 1.27 1.22 1.12 1.09 1.12 1.09 1.08 1.05 1.03 1.02 1.00 1.01 1.01 0.94 0.94 0.92 0.88 0.84
1.34 1.34 1.40 1.41 1.43 1.47 1.51 1.56 1.58 1.60 1.58 1.57 1.57 1.56 1.55 1.51 1.48 1.49 1.47 1.46 1.48 1.45 1.46 1.49 1.51 1.53 1.53 1.54 1.47 1.43 1.43 1.43 1.43 1.43 1.43 1.47 1.45 1.50 1.47 1.49 1.47 1.48 1.47 1.38 1.42 1.44 1.44 1.45 1.47 1.48 1.38 1.39 1.38 1.32 1.23 1.15 1.12 1.11 1.12 1.13 1.18 1.23 1.23 1.25 1.29 1.29 1.30 1.27 1.22 1.12 1.14 1.13 1.11 1.09 1.06 1.04 1.03 1.02 1.03 0.99 0.96 0.93 0.95 0.92 0.89
1.27 1.26 1.33 1.33 1.35 1.40 1.46 1.51 1.51 1.52 1.49 1.51 1.50 1.49 1.48 1.46 1.50 1.50 1.50 1.49 1.48 1.48 1.52 1.52 1.52 1.50 1.54 1.52 1.54 1.48 1.43 1.40 1.41 1.40 1.42 1.44 1.39 1.44 1.47 1.47 1.50 1.49 1.47 1.39 1.36 1.34 1.38 1.51 1.49 1.38 1.37 1.38 1.35 1.30 1.24 1.18 1.17 1.16 1.12 1.18 1.24 1.26 1.29 1.30 1.36 1.31 1.31 1.24 1.21 1.18 1.17 1.16 1.13 1.11 1.06 1.03 1.04 1.02 1.02 1.00 0.96 0.94 0.97 0.97 0.94
1.17 1.22 1.27 1.29 1.33 1.42 1.45 1.46 1.48 1.43 1.45 1.46 1.42 1.45 1.47 1.51 1.51 1.46 1.45 1.46 1.49 1.51 1.52 1.53 1.50 1.53 1.53 1.52 1.53 1.45 1.43 1.41 1.39 1.39 1.42 1.38 1.40 1.40 1.44 1.43 1.49 1.46 1.45 1.42 1.42 1.39 1.43 1.47 1.44 1.46 1.47 1.40 1.29 1.28 1.26 1.23 1.21 1.24 1.18 1.19 1.23 1.27 1.34 1.34 1.42 1.39 1.31 1.25 1.23 1.21 1.19 1.16 1.16 1.13 1.08 1.07 1.07 1.04 1.02 1.00 0.99 0.91 0.95 0.99 0.97
1.18 1.20 1.23 1.26 1.35 1.41 1.42 1.47 1.43 1.41 1.44 1.46 1.45 1.42 1.44 1.44 1.43 1.41 1.47 1.47 1.47 1.51 1.51 1.48 1.51 1.51 1.48 1.48 1.45 1.41 1.39 1.36 1.31 1.33 1.34 1.35 1.38 1.42 1.41 1.39 1.40 1.45 1.41 1.42 1.44 1.42 1.40 1.43 1.46 1.45 1.40 1.37 1.31 1.25 1.25 1.25 1.19 1.22 1.27 1.23 1.28 1.29 1.35 1.44 1.46 1.46 1.41 1.33 1.23 1.22 1.20 1.20 1.17 1.15 1.12 1.08 1.06 1.07 1.03 1.01 0.99 0.94 0.93 0.99 1.00
1.21 1.19 1.25 1.32 1.38 1.42 1.40 1.40 1.36 1.40 1.43 1.41 1.40 1.42 1.44 1.37 1.36 1.42 1.43 1.44 1.47 1.45 1.43 1.44 1.48 1.48 1.48 1.46 1.39 1.39 1.33 1.31 1.27 1.32 1.34 1.36 1.38 1.41 1.38 1.43 1.40 1.39 1.41 1.42 1.54 1.48 1.42 1.37 1.36 1.38 1.37 1.36 1.33 1.26 1.22 1.25 1.23 1.17 1.24 1.30 1.31 1.35 1.39 1.47 1.45 1.45 1.41 1.33 1.26 1.29 1.31 1.27 1.23 1.17 1.12 1.10 1.07 1.06 1.04 1.02 1.00 0.98 0.94 0.95 1.03
1.20 1.23 1.30 1.40 1.48 1.45 1.39 1.39 1.39 1.42 1.40 1.38 1.39 1.38 1.40 1.35 1.37 1.40 1.36 1.38 1.39 1.36 1.35 1.33 1.35 1.40 1.45 1.44 1.38 1.39 1.35 1.39 1.40 1.40 1.36 1.34 1.36 1.38 1.39 1.36 1.34 1.35 1.40 1.46 1.47 1.45 1.41 1.37 1.38 1.44 1.38 1.35 1.36 1.31 1.27 1.24 1.18 1.17 1.20 1.33 1.39 1.42 1.41 1.49 1.35 1.40 1.45 1.39 1.38 1.39 1.35 1.33 1.28 1.22 1.18 1.15 1.10 1.06 1.04 1.03 1.01 0.99 1.00 0.95 0.97
1.26 1.30 1.37 1.34 1.35 1.43 1.45 1.43 1.45 1.46 1.44 1.42 1.43 1.43 1.44 1.42 1.38 1.35 1.36 1.38 1.32 1.29 1.29 1.29 1.32 1.36 1.41 1.40 1.41 1.57 1.44 1.38 1.41 1.41 1.40 1.36 1.33 1.34 1.35 1.33 1.33 1.34 1.36 1.41 1.43 1.44 1.43 1.41 1.39 1.42 1.42 1.37 1.35 1.33 1.29 1.27 1.24 1.29 1.19 1.27 1.30 1.36 1.47 1.44 1.33 1.33 1.42 1.43 1.39 1.35 1.38 1.36 1.33 1.30 1.26 1.22 1.17 1.13 1.10 1.07 1.03 1.01 1.00 1.00 0.96
1.24 1.32 1.35 1.31 1.38 1.47 1.50 1.50 1.49 1.50 1.46 1.44 1.42 1.40 1.40 1.37 1.39 1.37 1.38 1.34 1.31 1.27 1.29 1.31 1.32 1.31 1.31 1.38 1.40 1.42 1.39 1.41 1.41 1.39 1.38 1.33 1.34 1.32 1.32 1.35 1.36 1.37 1.39 1.41 1.39 1.39 1.37 1.38 1.36 1.33 1.33 1.37 1.28 1.29 1.27 1.28 1.26 1.30 1.33 1.31 1.31 1.37 1.35 1.35 1.36 1.41 1.46 1.44 1.45 1.44 1.41 1.38 1.38 1.39 1.40 1.37 1.34 1.29 1.22 1.19 1.16 1.12 1.09 1.05 1.02
1.26 1.29 1.32 1.37 1.39 1.44 1.47 1.45 1.47 1.45 1.43 1.37 1.36 1.36 1.37 1.33 1.30 1.33 1.37 1.30 1.28 1.26 1.28 1.31 1.27 1.26 1.30 1.32 1.34 1.34 1.37 1.39 1.41 1.38 1.33 1.32 1.30 1.30 1.28 1.32 1.37 1.39 1.35 1.38 1.39 1.40 1.39 1.36 1.33 1.27 1.29 1.31 1.28 1.36 1.32 1.33 1.35 1.32 1.41 1.41 1.41 1.43 1.38 1.41 1.43 1.42 1.42 1.43 1.46 1.45 1.44 1.44 1.42 1.38 1.39 1.42 1.43 1.38 1.33 1.29 1.24 1.21 1.19 1.16 1.15
1.23 1.27 1.33 1.37 1.37 1.39 1.38 1.39 1.45 1.46 1.42 1.36 1.35 1.33 1.34 1.36 1.35 1.31 1.27 1.26 1.25 1.28 1.32 1.29 1.28 1.28 1.30 1.33 1.38 1.34 1.33 1.35 1.34 1.32 1.24 1.28 1.24 1.21 1.33 1.37 1.33 1.33 1.31 1.35 1.40 1.38 1.38 1.36 1.33 1.30 1.25 1.23 1.24 1.28 1.35 1.29 1.35 1.38 1.36 1.47 1.46 1.43 1.41 1.41 1.42 1.39 1.42 1.43 1.44 1.42 1.42 1.42 1.45 1.44 1.41 1.40 1.39 1.37 1.36 1.34 1.30 1.26 1.26 1.25 1.21
1.27 1.28 1.28 1.30 1.29 1.32 1.34 1.38 1.43 1.44 1.44 1.38 1.35 1.35 1.33 1.33 1.32 1.29 1.29 1.29 1.27 1.26 1.29 1.23 1.23 1.20 1.22 1.30 1.32 1.28 1.27 1.32 1.32 1.30 1.25 1.28 1.22 1.24 1.33 1.34 1.33 1.31 1.31 1.34 1.37 1.42 1.39 1.32 1.29 1.32 1.32 1.26 1.27 1.28 1.27 1.28 1.35 1.35 1.39 1.42 1.49 1.51 1.43 1.43 1.42 1.43 1.44 1.41 1.39 1.40 1.36 1.38 1.42 1.41 1.39 1.38 1.37 1.35 1.37 1.37 1.37 1.36 1.34 1.32 1.31
1.28 1.28 1.30 1.28 1.27 1.28 1.31 1.40 1.46 1.50 1.47 1.38 1.31 1.31 1.32 1.29 1.23 1.23 1.25 1.22 1.21 1.25 1.22 1.19 1.20 1.16 1.15 1.14 1.27 1.16 1.15 1.22 1.28 1.31 1.27 1.25 1.28 1.27 1.36 1.38 1.34 1.31 1.29 1.27 1.28 1.35 1.36 1.34 1.30 1.35 1.33 1.31 1.27 1.26 1.25 1.28 1.32 1.35 1.35 1.44 1.38 1.36 1.43 1.46 1.53 1.48 1.38 1.38 1.39 1.36 1.37 1.38 1.38 1.37 1.37 1.35 1.35 1.36 1.35 1.35 1.34 1.33 1.31 1.30 1.32
1.24 1.27 1.29 1.29 1.31 1.28 1.35 1.40 1.47 1.49 1.45 1.36 1.32 1.33 1.30 1.26 1.21 1.14 1.14 1.16 1.18 1.17 1.16 1.11 1.12 1.16 1.19 1.26 1.23 1.15 1.17 1.16 1.14 1.16 1.22 1.20 1.25 1.28 1.25 1.26 1.22 1.23 1.21 1.19 1.21 1.25 1.29 1.30 1.28 1.30 1.35 1.37 1.34 1.33 1.28 1.30 1.28 1.28 1.28 1.34 1.27 1.21 1.36 1.45 1.39 1.32 1.35 1.35 1.37 1.39 1.36 1.34 1.34 1.36 1.37 1.35 1.36 1.37 1.38 1.39 1.38 1.39 1.39 1.38 1.36
1.23 1.25 1.27 1.25 1.30 1.31 1.37 1.41 1.46 1.49 1.44 1.37 1.32 1.27 1.25 1.14 1.07 1.08 1.08 1.09 1.09 1.03 1.06 1.08 1.04 1.08 1.11 1.18 1.23 1.24 1.22 1.17 1.17 1.16 1.14 1.14 1.19 1.18 1.21 1.21 1.19 1.21 1.19 1.12 1.15 1.19 1.20 1.21 1.22 1.25 1.25 1.28 1.37 1.33 1.32 1.27 1.26 1.24 1.28 1.33 1.37 1.35 1.30 1.35 1.37 1.35 1.37 1.31 1.33 1.40 1.38 1.44 1.42 1.38 1.33 1.40 1.39 1.37 1.40 1.38 1.38 1.37 1.40 1.39 1.38
1.23 1.25 1.26 1.29 1.30 1.32 1.37 1.32 1.43 1.45 1.36 1.31 1.26 1.19 1.11 1.05 1.06 1.02 0.99 0.99 0.99 0.95 0.98 0.98 1.03 1.07 1.12 1.16 1.22 1.22 1.24 1.23 1.27 1.19 1.10 1.19 1.20 1.21 1.20 1.19 1.23 1.21 1.14 1.12 1.14 1.20 1.22 1.24 1.22 1.22 1.21 1.19 1.20 1.30 1.29 1.29 1.18 1.12 1.22 1.24 1.26 1.32 1.30 1.31 1.30 1.31 1.32 1.38 1.36 1.32 1.33 1.40 1.44 1.40 1.39 1.40 1.42 1.42 1.41 1.42 1.39 1.43 1.41 1.41 1.41
1.17 1.24 1.26 1.30 1.35 1.41 1.35 1.39 1.38 1.40 1.33 1.29 1.26 1.19 1.13 1.07 1.04 0.96 0.93 0.89 0.87 0.86 0.86 0.95 1.01 1.04 1.11 1.15 1.25 1.24 1.23 1.23 1.28 1.26 1.20 1.05 1.07 1.14 1.14 1.10 1.12 1.10 1.13 1.15 1.16 1.19 1.19 1.21 1.19 1.12 1.19 1.15 1.13 1.22 1.22 1.23 1.11 1.02 1.01 1.02 1.10 1.21 1.26 1.29 1.29 1.30 1.33 1.36 1.35 1.37 1.35 1.36 1.36 1.40 1.42 1.42 1.39 1.39 1.38 1.40 1.39 1.37 1.37 1.37 1.39
1.17 1.23 1.30 1.30 1.32 1.37 1.43 1.42 1.32 1.29 1.28 1.24 1.22 1.17 1.13 1.10 1.07 0.93 0.93 0.88 0.91 0.92 0.89 0.89 0.96 0.99 1.05 1.09 1.16 1.23 1.25 1.24 1.29 1.26 1.24 1.20 1.13 1.05 1.11 1.14 1.13 1.10 1.06 1.07 1.11 1.13 1.17 1.14 1.13 1.08 1.06 1.13 1.14 1.22 1.18 1.21 1.04 1.14 1.13 0.99 0.92 0.97 1.12 1.20 1.27 1.28 1.29 1.31 1.36 1.33 1.30 1.38 1.35 1.34 1.37 1.38 1.36 1.37 1.38 1.36 1.34 1.33 1.35 1.35 1.36
1.19 1.25 1.28 1.25 1.26 1.36 1.48 1.35 1.29 1.26 1.21 1.19 1.16 1.19 1.15 1.11 1.05 1.10 1.09 1.03 0.92 0.90 0.82 0.80 0.92 0.93 0.95 1.02 1.02 1.07 1.12 1.16 1.21 1.28 1.33 1.29 1.19 1.17 1.19 1.17 1.18 1.14 1.08 1.05 1.07 1.08 1.10 1.10 1.09 1.10 1.09 0.98 1.02 1.12 1.23 1.21 1.12 1.04 0.88 0.91 0.97 0.95 0.88 0.97 1.10 1.19 1.26 1.25 1.25 1.32 1.38 1.37 1.36 1.35 1.34 1.30 1.31 1.33 1.33 1.32 1.30 1.30 1.32 1.32 1.33
1.16 1.21 1.26 1.27 1.29 1.33 1.38 1.32 1.28 1.19 1.20 1.18 1.15 1.13 1.13 1.07 1.05 1.05 1.02 0.93 0.88 0.82 0.75 0.70 0.77 0.89 0.90 0.93 0.93 0.99 1.03 1.05 1.09 1.07 1.17 1.16 1.14 1.12 1.12 1.09 1.12 1.13 1.11 1.07 1.07 1.10 1.13 1.16 1.14 1.09 1.06 1.00 0.99 1.09 1.20 1.22 1.16 1.19 1.07 0.93 0.86 0.84 0.86 0.97 1.04 1.04 1.17 1.15 1.22 1.25 1.35 1.36 1.35 1.35 1.29 1.29 1.33 1.32 1.29 1.29 1.25 1.23 1.25 1.26 1.22
1.18 1.23 1.31 1.32 1.31 1.37 1.50 1.31 1.23 1.20 1.17 1.13 1.11 1.07 1.02 1.02 0.95 0.87 0.77 0.71 0.64 0.65 0.68 0.70 0.67 0.69 0.79 0.86 0.89 0.96 0.95 0.96 1.00 0.99 0.99 1.00 0.92 0.93 0.89 0.87 0.94 1.05 1.06 1.11 1.09 1.15 1.11 1.13 1.13 1.10 1.07 1.08 1.06 1.04 1.07 1.17 1.22 1.22 1.21 1.17 1.07 0.87 0.86 0.98 0.94 0.79 1.08 1.16 1.18 1.24 1.25 1.30 1.34 1.31 1.26 1.24 1.21 1.18 1.18 1.12 1.09 1.10 1.14 1.14 1.10
1.21 1.30 1.36 1.36 1.37 1.36 1.36 1.30 1.22 1.17 1.11 1.04 1.04 0.99 0.89 0.96 0.95 0.83 0.71 0.66 0.67 0.80 0.82 0.83 0.87 0.86 0.85 0.83 0.86 0.90 0.89 0.92 0.92 0.87 0.85 0.81 0.79 0.74 0.80 0.88 0.81 0.84 0.93 1.01 1.06 1.05 1.04 1.04 1.09 1.07 1.08 1.08 1.09 1.02 1.05 1.11 1.14 1.16 1.19 1.19 1.11 1.07 1.03 0.91 0.81 0.87 0.79 0.99 1.12 1.15 1.15 1.23 1.28 1.24 1.20 1.17 1.11 1.06 1.01 0.99 0.96 0.97 0.99 1.01 0.99
1.27 1.31 1.30 1.32 1.26 1.26 1.33 1.25 1.22 1.09 1.01 0.99 0.97 0.99 0.86 0.92 0.89 0.76 0.75 0.79 0.83 0.78 0.82 0.90 0.87 0.82 0.81 0.81 0.80 0.86 0.93 0.92 0.88 0.81 0.82 0.83 0.78 0.82 0.87 0.86 0.83 0.81 0.86 0.86 0.98 1.10 1.10 1.09 1.07 1.09 1.08 1.09 1.10 1.05 1.07 1.10 1.05 1.02 1.14 1.15 1.07 1.08 1.08 1.05 0.98 0.88 0.84 0.81 0.93 1.17 1.18 1.20 1.15 1.14 1.16 1.11 1.01 0.97 0.96 0.96 0.94 0.91 0.89 0.88 0.91
1.22 1.17 1.15 1.06 1.18 1.23 1.28 1.23 1.15 1.05 1.00 1.02 1.02 0.99 0.92 0.92 0.91 0.93 0.90 0.93 0.88 0.83 0.87 0.84 0.78 0.76 0.74 0.78 0.87 0.88 0.89 0.93 0.95 0.93 0.94 0.87 0.90 0.87 0.88 0.90 0.93 0.91 0.87 0.88 0.95 1.04 1.05 1.04 1.07 1.06 1.03 1.04 1.08 1.12 1.09 1.03 1.10 1.13 1.09 1.10 1.08 1.02 1.01 1.01 1.03 1.02 0.92 0.85 0.88 0.94 0.98 1.06 1.05 1.02 0.99 0.99 0.96 0.93 0.90 0.88 0.88 0.83 0.73 0.71 0.67
1.27 1.28 1.18 1.10 1.15 1.14 1.14 1.13 1.05 1.03 1.01 1.00 0.98 0.97 0.92 0.89 0.96 0.97 0.98 0.91 0.87 0.83 0.81 0.74 0.73 0.73 0.76 0.87 0.92 0.90 0.89 0.89 0.88 0.93 0.93 0.98 0.92 0.88 0.85 0.88 0.89 0.90 0.88 0.88 0.95 1.00 1.02 1.05 1.04 1.03 1.05 1.00 1.10 1.13 1.05 1.10 1.11 1.12 1.11 1.01 0.96 1.00 0.99 0.96 0.97 0.99 1.01 0.98 0.90 0.89 0.90 0.88 0.83 0.90 0.95 0.92 0.89 0.86 0.85 0.82 0.78 0.73 0.63 0.61 0.57
1.33 1.35 1.24 1.17 1.15 1.12 1.10 1.05 1.03 1.01 0.98 0.96 0.98 0.95 0.84 0.94 0.96 1.00 0.97 0.89 0.81 0.77 0.73 0.69 0.69 0.76 0.80 0.84 0.83 0.87 0.89 0.90 0.92 0.96 1.05 1.04 1.00 0.94 0.85 0.86 0.91 0.88 0.85 0.88 0.92 0.94 0.96 0.95 0.98 1.02 1.06 1.04 1.05 1.13 0.99 1.00 1.06 1.06 1.02 1.00 0.99 1.00 0.93 0.85 0.87 0.94 0.94 0.90 0.90 0.92 0.92 0.93 0.88 0.86 0.88 0.83 0.73 0.67 0.62 0.60 0.59 0.61 0.59 0.54 0.52
Wind_Speed
10 10 10 10 9 8 8 7 7 7 7 7 7 7 7 7 6 6 6 5 4 4 4 4 3 3 3 3 2 2 1 1 1 2 2 2 1 1 1 1 1 1 1 1 1 2 2 3 3 3 4 4 5 5 5 6 6 6 7 8 8 9 9 10 10 11 11 11 11 11 11 11 11 11 11 11 11 10 10 10 9 10 10 10 11
9 10 10 10 10 9 8 7 7 7 7 7 7 7 7 7 7 6 6 6 5 5 4 4 4 3 3 3 2 2 1 0 1 1 2 2 2 2 1 1 1 0 1 1 1 2 2 3 3 3 3 4 4 5 5 5 5 6 7 7 8 8 9 10 11 11 11 11 11 12 12 12 12 11 12 12 11 11 11 10 10 10 10 10 11
9 10 10 10 9 9 8 8 7 7 7 7 7 8 8 8 7 7 7 6 6 5 5 5 5 4 4 3 3 2 1 1 1 1 2 2 2 2 2 2 2 1 1 1 1 2 2 2 2 2 3 4 4 4 5 5 5 6 6 7 8 8 9 10 11 11 11 11 12 12 12 12 12 11 12 12 12 12 12 11 11 11 11 11 11
8 10 10 9 9 8 8 8 8 7 7 7 8 8 8 8 8 8 7 7 7 6 6 6 5 5 5 4 3 3 2 2 1 2 2 2 3 3 3 3 2 2 2 2 2 2 1 1 2 2 2 3 3 4 4 4 5 5 6 6 8 8 9 10 10 10 11 11 11 11 11 11 11 11 11 12 12 11 12 11 11 11 11 11 11
8 9 10 9 9 8 8 8 8 8 8 8 8 9 9 8 8 8 8 8 7 7 7 7 6 5 5 5 4 3 3 3 2 2 2 3 3 3 3 4 3 3 3 3 3 2 2 2 2 2 2 3 3 3 3 3 4 5 5 6 7 8 9 9 9 10 9 9 9 9 10 11 11 11 11 11 11 11 11 11 11 11 11 11 11
8 9 9 9 9 8 8 8 8 8 8 8 9 9 9 9 9 9 9 9 8 8 7 7 6 6 6 5 5 4 4 3 3 3 3 3 3 3 4 4 4 4 4 4 4 3 3 3 2 2 3 3 2 2 2 3 4 5 5 6 6 7 8 8 9 9 8 8 7 8 8 9 10 10 10 10 11 11 10 11 11 11 10 10 10
8 9 9 9 9 8 8 8 8 8 9 9 9 10 10 10 9 9 9 9 9 8 8 7 7 7 6 5 5 4 4 4 3 3 3 3 3 4 4 5 5 5 4 5 4 4 4 3 3 3 3 3 2 2 2 3 3 4 5 5 6 6 7 7 7 7 7 7 7 7 7 8 9 9 10 9 10 10 10 10 10 10 10 10 10
9 9 9 9 9 9 8 8 8 9 9 10 10 10 10 10 10 10 10 10 9 9 9 8 8 7 6 6 5 5 5 4 4 3 3 3 3 4 4 5 6 6 5 5 5 5 5 4 4 4 4 3 3 2 2 3 4 4 5 5 5 5 6 6 6 6 6 6 7 7 7 8 9 9 9 9 9 10 10 10 10 10 10 10 10
9 10 9 9 9 9 8 8 9 9 10 10 10 10 10 10 10 10 10 10 9 9 9 9 8 7 7 6 5 5 5 5 4 3 3 3 3 4 5 6 6 6 6 6 6 6 5 5 5 5 5 4 4 3 3 3 4 4 4 4 4 4 4 4 5 5 5 6 7 7 7 8 8 8 9 9 9 9 9 9 10 10 10 10 10
9 9 9 9 9 9 9 9 9 9 10 10 10 10 10 10 10 10 10 10 9 9 9 9 8 7 7 6 6 5 5 4 4 3 3 3 3 4 5 6 6 6 6 6 7 6 6 6 6 6 6 5 5 4 4 4 4 4 3 3 3 3 3 3 4 4 5 6 7 7 7 7 7 8 8 9 9 9 9 9 9 10 10 10 10
9 9 9 9 9 9 9 9 9 9 10 10 10 10 10 10 10 10 10 10 10 10 10 9 8 8 7 7 6 5 5 5 4 4 4 4 4 4 4 5 6 6 6 7 7 7 7 7 7 7 7 6 6 6 5 5 4 3 2 2 2 2 2 2 3 3 4 6 6 6 6 6 7 8 8 8 8 8 9 9 9 9 10 10 10
8 8 8 9 9 9 9 9 9 9 10 10 10 10 10 10 10 10 10 10 10 10 10 9 9 8 8 8 7 6 6 5 5 4 4 4 4 4 4 5 6 7 7 7 7 8 8 8 8 8 8 8 8 7 6 6 5 4 3 2 2 1 1 1 2 2 3 5 5 5 6 6 7 7 8 8 8 8 8 9 9 9 9 9 10
8 8 9 9 10 10 10 9 9 9 10 10 10 10 10 11 10 10 10 10 10 10 10 10 9 9 9 8 8 7 7 6 6 5 5 5 4 4 5 5 6 7 7 7 7 8 8 8 9 9 9 9 9 9 8 7 6 5 4 3 3 2 1 1 1 1 3 5 4 4 5 5 6 7 7 7 7 8 8 8 8 8 8 8 9
8 8 9 10 10 10 10 10 10 10 10 10 10 10 11 11 11 11 10 10 10 10 10 10 10 10 10 9 8 8 8 7 7 6 6 6 5 5 5 5 6 6 7 7 8 9 8 9 10 10 10 11 11 10 9 8 7 6 5 4 4 3 2 1 0 1 3 4 3 4 4 5 5 6 6 6 6 7 7 7 7 8 8 8 8
8 9 9 9 10 10 10 10 10 10 10 10 10 10 11 11 11 10 11 10 10 11 10 10 11 11 11 10 9 9 8 8 8 7 7 6 6 6 6 6 6 6 7 7 9 9 10 10 11 11 11 12 12 11 10 9 8 7 6 6 5 4 3 2 1 2 3 4 3 3 3 3 4 5 5 6 6 6 6 6 7 7 7 7 7
8 8 9 9 9 10 10 10 10 10 11 10 10 10 10 10 10 10 11 11 10 11 10 10 11 11 10 10 9 8 8 8 8 8 7 7 6 6 6 7 7 7 7 8 9 10 10 11 11 11 11 12 12 12 11 10 9 8 8 7 6 5 4 3 3 3 3 4 3 2 2 2 3 3 4 4 4 5 5 5 6 6 6 6 6
8 8 8 9 9 10 10 10 11 11 11 10 9 9 10 10 10 10 10 10 11 11 10 10 10 10 9 8 8 8 8 8 8 8 7 7 7 7 7 7 7 7 7 8 9 9 10 11 12 12 12 12 13 13 12 11 10 10 9 8 8 7 6 5 4 4 4 4 4 3 2 2 2 2 3 3 3 3 4 4 4 5 5 5 5
8 8 9 9 9 10 10 10 11 11 11 10 9 9 9 9 9 10 10 10 11 10 10 10 9 9 9 8 7 7 7 8 8 8 7 7 7 7 7 7 7 7 7 8 8 8 10 11 12 12 12 12 13 13 13 12 12 11 10 9 9 8 7 6 6 5 5 5 5 3 2 2 2 2 2 2 2 2 2 2 3 3 4 4 5
9 8 9 9 9 9 10 11 11 10 10 9 9 9 9 9 9 10 10 10 10 10 10 9 8 8 8 8 8 7 7 7 8 8 7 7 8 7 7 7 7 7 7 7 7 8 10 11 12 12 12 12 13 13 13 13 13 12 12 11 10 9 8 7 7 7 6 6 6 5 4 3 3 3 2 2 2 2 1 1 1 1 2 3 3
9 8 8 9 9 9 10 10 9 9 10 9 9 9 9 9 9 10 9 10 10 10 10 10 9 8 8 8 8 7 7 7 7 8 8 8 8 8 8 8 8 8 7 6 7 7 9 10 11 12 12 13 13 14 14 14 13 13 13 12 11 10 9 9 9 8 7 7 7 6 5 4 4 4 4 3 3 2 2 1 1 0 0 1 1
9 9 8 9 9 9 10 10 9 9 10 9 9 9 9 9 9 9 9 9 9 9 9 10 10 9 9 9 9 8 8 8 9 9 9 9 8 8 8 8 8 8 7 7 7 7 8 8 10 11 12 12 13 14 14 14 14 14 14 13 12 11 10 10 10 9 8 8 8 7 7 6 5 5 5 5 4 4 3 3 2 1 1 1 0
9 9 9 10 10 11 10 11 10 9 9 9 9 9 9 9 9 9 9 9 9 8 9 10 10 10 10 9 9 9 9 10 10 9 9 9 8 7 7 7 7 8 8 8 8 8 8 8 9 10 11 12 13 14 14 15 15 15 15 15 14 13 12 11 11 10 10 10 9 9 8 7 7 6 6 6 6 5 4 4 3 3 3 2 2
9 9 9 10 10 10 10 9 8 8 9 8 8 8 9 9 9 9 9 9 8 8 9 10 10 10 10 9 9 10 10 10 9 9 10 9 8 7 7 7 8 8 9 9 8 8 8 8 9 10 11 12 13 13 14 14 15 15 15 15 15 15 14 13 12 12 11 11 10 10 9 8 8 8 7 7 7 7 6 6 5 4 4 3 3
9 9 9 9 8 8 8 8 8 9 9 9 8 8 8 8 9 9 8 8 8 9 9 10 10 10 10 10 10 11 11 11 10 10 9 9 8 8 8 8 9 9 9 10 9 9 9 9 9 9 10 10 11 12 13 14 14 15 16 16 16 15 15 14 13 12 12 12 11 11 10 10 9 9 9 9 8 8 8 7 6 6 5 5 4
9 9 9 9 9 9 9 9 9 9 9 9 8 8 8 8 8 9 9 9 9 9 10 10 10 10 10 11 11 11 11 10 9 9 9 9 9 9 9 9 9 9 9 9 9 9 9 9 9 9 10 10 11 12 13 14 14 14 15 16 16 16 15 15 13 13 13 12 12 11 11 11 11 10 10 10 10 9 9 8 8 7 7 6 5
9 9 9 10 10 10 9 8 8 8 8 8 8 8 8 9 9 9 9 10 10 10 10 10 11 11 10 10 9 8 8 8 8 8 8 9 9 9 9 9 9 9 9 9 8 8 8 8 9 9 10 10 11 12 12 13 14 14 15 16 16 16 16 15 14 14 14 13 12 12 12 12 12 11 11 11 11 11 10 10 9 8 8 7 6
9 9 9 9 9 9 8 8 8 8 8 8 8 9 9 9 10 10 9 10 10 11 11 10 10 9 9 8 8 7 7 7 8 8 8 9 9 9 10 10 10 9 8 8 8 8 8 8 8 9 10 10 10 11 11 12 12 13 14 15 16 16 15 15 14 14 14 13 13 13 13 12 12 12 12 12 12 12 11 11 10 10 9 9 8
9 9 9 9 9 9 9 8 8 9 9 8 8 9 9 9 10 10 9 9 10 10 9 9 8 8 8 8 7 7 7 7 7 8 8 9 9 10 10 9 9 8 8 8 8 8 8 8 8 9 9 9 9 9 10 11 11 12 13 14 15 15 15 15 14 14 14 13 13 13 13 13 13 12 12 12 12 12 12 12 11 11 11 10 10
9 9 9 8 8 9 9 9 9 8 8 8 8 8 8 8 8 9 9 9 9 8 8 8 7 8 8 8 8 8 8 8 8 8 8 8 9 10 9 9 9 8 8 8 8 7 7 8 8 8 8 9 9 9 9 10 11 11 12 12 13 13 13 14 13 12 13 12 12 13 13 13 12 12 12 12 13 13 13 12 12 12 11 11 11
9 9 9 8 9 9 9 9 9 9 9 8 9 8 8 7 7 7 8 8 8 8 8 8 7 8 8 8 8 8 9 9 8 8 8 8 9 10 9 9 9 8 8 8 8 8 8 8 8 8 8 8 9 9 8 9 10 11 11 12 12 12 12 12 11 11 10 11 11 11 12 12 12 12 12 12 12 12 12 12 12 12 12 12 12
10 9 9 9 9 10 9 9 9 9 9 9 9 8 8 7 7 7 7 8 8 8 8 8 8 8 8 8 8 8 9 9 9 8 8 8 9 9 9 9 8 8 9 9 8 9 9 8 8 9 8 8 8 8 7 7 9 10 11 11 12 11 11 11 11 10 10 10 10 10 11 11 11 11 11 11 11 12 12 12 11 11 11 12 12
10 10 10 10 10 11 10 9 9 9 9 9 9 8 8 7 7 7 7 7 8 7 7 8 8 8 8 8 8 8 9 9 9 8 8 8 8 8 8 8 8 8 9 9 9 8 8 8 8 8 8 8 8 7 7 7 7 8 9 10 10 10 9 9 9 10 10 9 9 9 9 9 9 9 9 10 10 11 11 11 11 11 11 11 11
11 10 10 11 11 11 10 9 9 9 9 9 9 8 8 8 7 7 7 7 7 7 7 7 8 8 8 8 8 8 9 9 9 8 8 8 8 8 8 8 8 8 8 8 8 8 7 7 7 7 8 8 8 7 7 6 6 7 7 8 8 8 6 6 7 8 9 8 8 8 8 8 8 8 8 8 9 9 10 11 11 11 11 11 11
11 11 11 11 12 11 10 9 9 9 9 9 9 8 8 8 8 8 8 7 7 6 6 7 7 8 8 8 8 8 8 8 8 8 8 8 8 8 8 8 7 8 8 7 7 7 7 6 6 7 7 7 7 7 7 6 7 6 6 6 6 7 6 5 6 7 8 8 7 7 7 7 7 7 7 7 7 8 9 9 10 10 11 11 11
11 12 12 12 12 11 10 10 10 10 10 9 9 8 8 8 8 8 8 7 7 6 6 7 7 7 7 7 7 7 8 8 8 9 8 8 8 8 8 8 7 7 7 7 6 6 6 6 6 7 7 7 6 7 6 6 7 6 6 5 4 5 5 5 6 6 6 7 7 7 7 7 6 6 6 6 6 7 7 8 8 9 10 10 10
12 12 13 13 12 11 11 11 11 10 10 9 9 8 8 8 7 7 7 7 6 6 6 6 6 6 6 6 6 7 7 8 8 8 8 8 7 7 7 7 7 7 6 6 6 6 6 6 6 6 7 7 6 6 6 6 6 6 6 6 4 4 5 5 5 5 6 6 7 7 7 7 6 6 5 6 6 6 6 6 7 8 8 9 9
12 13 13 13 12 12 12 11 12 11 9 9 9 8 8 7 7 7 6 6 5 5 5 5 5 5 5 5 6 7 6 7 7 7 7 8 7 7 7 7 6 6 6 5 5 5 6 6 6 6 6 6 6 6 5 6 6 5 5 6 5 4 4 4 4 4 5 5 6 6 6 6 6 6 6 6 6 6 6 6 6 7 7 8 8
13 13 13 13 13 13 12 12 12 11 10 9 9 8 8 7 6 6 6 5 4 4 4 3 3 3 3 3 4 5 5 6 6 6 6 7 7 6 6 6 6 5 5 5 5 5 6 6 5 5 6 6 6 6 6 6 6 5 5 5 5 5 4 3 3 4 4 5 5 6 6 6 6 6 6 6 6 6 6 7 7 7 7 7 8
13 13 13 13 13 13 13 12 12 11 10 9 9 8 8 7 6 6 5 4 4 3 3 2 2 1 1 2 3 3 4 4 5 5 5 6 6 5 6 6 5 5 5 5 4 5 6 6 6 6 6 6 6 6 6 6 6 6 5 5 4 5 5 5 4 4 5 5 5 6 6 6 6 7 6 7 7 7 7 7 7 7 7 7 7
14 14 14 14 14 14 13 12 12 11 11 10 9 8 8 7 7 6 5 4 3 2 2 2 1 1 1 1 2 2 2 3 3 3 4 5 5 5 5 5 5 5 5 5 4 5 5 6 6 6 6 6 6 6 6 6 6 6 5 5 4 4 5 6 5 5 5 5 5 6 6 6 6 6 6 7 7 7 7 7 7 7 7 6 6
14 14 15 15 15 15 14 13 13 12 11 10 9 9 8 7 7 6 5 5 3 3 2 2 1 0 0 0 1 1 2 2 2 3 3 4 4 4 5 5 5 6 5 5 5 5 5 6 6 6 7 7 7 6 6 6 6 6 5 5 4 5 6 6 5 5 5 5 5 5 6 6 6 6 6 6 6 6 6 6 6 6 6 5 6
15 15 15 15 15 15 14 14 13 13 11 10 10 9 8 8 7 6 6 5 4 3 3 2 1 1 0 1 1 1 1 2 2 2 3 3 3 4 4 5 5 5 6 6 6 6 6 6 6 6 7 7 7 7 7 7 6 6 6 6 5 5 6 6 5 5 5 5 4 5 4 5 5 5 5 5 5 5 5 5 5 5 5 5 5
15 15 15 14 14 14 14 14 14 14 12 11 10 9 9 8 7 6 6 5 4 4 3 2 2 1 1 1 1 1 2 2 2 2 3 2 3 3 4 4 4 5 5 6 6 6 6 6 6 7 7 7 7 7 7 8 7 6 6 6 5 5 6 6 5 5 5 5 5 5 4 4 4 4 4 3 3 3 3 3 3 4 4 4 4
15 15 15 15 15 15 15 14 14 14 13 12 11 10 9 8 7 7 7 6 5 4 4 3 2 2 2 2 2 2 2 2 2 3 3 2 2 2 3 4 4 4 5 5 6 6 7 7 7 7 7 7 7 7 8 8 8 7 7 6 6 6 6 6 5 5 5 4 4 4 4 4 3 3 3 3 3 2 2 2 3 3 3 4 4
15 15 16 16 15 15 15 15 14 14 13 12 11 11 10 9 8 8 7 6 5 5 4 4 4 3 3 3 3 3 3 3 3 3 3 2 2 2 3 3 4 4 5 5 6 6 7 7 7 7 8 7 7 7 8 8 8 8 7 6 6 6 6 6 6 5 5 4 4 4 3 3 3 3 3 3 3 2 2 2 2 3 3 4 4
15 15 16 15 14 14 15 14 14 14 13 13 12 11 10 9 9 9 7 7 6 5 5 4 4 4 5 4 4 4 3 3 3 2 3 3 3 3 3 4 4 4 5 5 5 6 6 7 7 8 8 8 8 8 8 8 8 9 8 7 7 7 7 7 6 5 5 4 4 4 3 3 3 2 2 2 2 2 3 3 3 3 3 4 5
15 14 13 13 11 12 13 13 13 14 13 13 12 11 10 10 11 9 8 7 6 6 5 5 5 5 5 5 5 4 4 4 3 3 3 3 3 3 4 4 4 4 4 5 5 5 6 6 7 7 8 8 8 8 8 8 8 8 9 8 7 7 7 7 7 7 5 4 4 3 3 3 3 2 2 2 3 4 4 4 4 4 5 5 5
14 13 11 10 9 11 12 11 12 13 13 13 13 12 10 10 10 9 8 7 7 6 6 5 6 6 6 5 5 5 4 4 5 4 4 4 3 3 4 4 5 4 3 4 4 5 5 6 6 6 7 7 8 8 8 7 8 8 8 8 7 7 7 8 7 7 7 5 4 4 3 3 4 4 4 5 4 5 5 4 5 5 5 5 6
14 13 11 10 10 11 11 11 12 13 13 13 13 12 11 10 10 9 8 8 7 7 6 6 6 6 5 5 5 5 5 5 5 5 5 5 5 4 4 4 4 4 3 3 4 4 4 5 5 6 6 7 7 7 8 7 7 8 8 8 8 7 7 7 7 7 7 6 6 5 5 5 5 5 5 5 5 4 4 4 5 5 5 5 5
15 14 13 12 11 11 12 12 13 13 13 13 13 13 12 11 9 8 8 8 8 8 7 6 6 6 5 5 5 5 5 6 6 6 7 6 6 6 5 5 5 4 4 3 3 3 3 4 4 5 5 6 6 6 7 7 7 7 8 8 7 7 7 7 7 7 6 6 6 6 6 5 5 5 4 4 5 5 5 4 4 4 5 5 5
15 14 12 12 11 10 12 13 13 13 13 13 13 13 13 11 8 8 8 8 8 8 7 7 6 6 6 6 6 6 6 7 7 7 7 7 7 7 6 6 6 5 4 4 4 4 4 4 4 4 4 5 5 6 6 6 6 6 7 7 7 7 7 7 7 7 7 7 6 6 6 5 5 5 5 5 5 5 4 5 4 5 6 6 6
Wind_Direction
242 236 232 232 231 234 237 241 240 242 242 244 244 241 242 244 249 251 250 247 253 259 269 282 291 299 307 319 325 336 353 64 126 146 156 167 177 192 193 165 118 112 106 90 95 105 112 103 89 77 75 84 87 82 77 72 69 66 68 70 70 73 75 77 79 79 79 80 79 77 74 71 68 67 67 67 70 75 78 80 83 86 82 80 81
237 231 228 229 229 233 236 240 239 241 241 242 242 241 242 243 246 245 242 241 245 251 262 272 276 281 288 298 304 312 314 289 164 173 180 191 203 217 226 215 202 173 141 116 122 128 124 107 94 86 86 95 94 85 80 75 72 71 71 73 74 77 78 78 79 80 80 80 80 79 75 72 69 68 68 66 70 74 76 80 83 86 83 82 82
234 227 225 225 228 232 234 239 240 242 241 240 242 241 241 241 242 240 238 238 241 247 257 264 267 270 274 279 284 287 276 260 217 207 207 212 219 223 229 226 224 212 188 170 164 152 135 119 106 96 100 104 101 90 83 79 77 77 76 78 80 81 79 78 78 79 79 79 80 79 75 71 69 69 69 67 69 73 75 78 82 85 83 85 84
231 225 223 223 226 230 234 239 240 241 241 241 242 242 241 240 239 238 237 236 240 246 253 258 261 265 265 268 272 272 264 255 242 230 225 225 228 230 233 229 228 223 214 205 198 188 172 157 136 113 117 118 110 100 89 84 84 84 84 85 84 82 80 78 77 77 79 80 79 76 72 71 71 70 70 69 68 71 75 78 80 83 85 87 85
227 223 221 222 226 231 236 238 239 241 241 243 243 243 241 239 238 237 237 236 240 245 252 254 257 263 262 262 264 264 260 256 250 242 238 236 233 234 233 229 228 226 226 219 212 208 200 184 166 145 139 135 121 109 99 94 92 94 93 90 86 82 79 77 77 78 81 83 80 74 71 71 71 70 70 71 70 70 74 78 78 81 85 87 88
228 222 222 224 228 232 235 237 238 241 243 245 244 243 240 237 238 237 238 237 240 246 250 251 255 261 260 259 261 261 256 254 254 249 245 241 237 234 231 229 228 229 233 229 222 217 211 199 185 172 159 150 137 126 116 109 103 104 100 94 88 82 79 77 78 78 79 82 81 78 73 69 71 70 70 72 73 72 73 76 78 80 83 86 90
228 220 224 227 231 232 234 238 239 244 245 245 244 242 239 238 239 238 238 238 241 246 248 249 255 257 257 257 258 257 250 252 256 256 251 244 240 233 229 230 231 233 236 232 228 222 218 211 197 186 174 165 160 156 142 127 117 113 106 97 89 82 78 75 75 75 75 75 78 82 75 69 72 71 70 72 75 75 74 75 77 79 83 86 87
225 222 228 230 233 233 234 240 242 247 246 246 244 241 239 238 239 238 239 240 242 246 247 249 253 253 254 255 255 253 247 249 256 262 260 250 242 232 229 232 235 237 236 233 231 226 222 217 202 193 184 180 180 180 167 146 131 123 114 101 89 80 74 69 68 67 67 67 74 85 80 72 74 73 72 74 78 77 75 75 76 78 82 85 85
226 226 230 234 235 233 237 243 245 248 247 246 245 243 241 239 239 239 240 241 244 245 247 249 250 250 252 254 253 250 244 246 254 261 259 252 243 234 234 236 238 237 234 233 232 227 223 220 207 198 193 190 191 191 182 158 143 135 124 108 91 78 69 63 60 59 64 70 78 86 83 75 73 74 75 76 78 77 75 76 77 79 82 84 83
226 229 233 237 235 235 240 245 247 247 247 247 246 244 242 240 239 239 240 241 244 245 246 247 247 247 249 250 249 247 244 246 253 257 255 252 245 239 241 240 239 237 235 234 231 227 226 224 212 202 199 198 197 195 187 168 158 152 139 121 103 82 69 57 52 55 65 77 85 91 85 75 73 76 77 76 77 77 76 77 79 81 83 82 82
223 229 236 237 234 238 242 245 246 247 248 248 247 245 241 239 239 239 240 242 242 243 244 244 244 245 246 245 246 246 246 247 251 253 253 255 252 247 246 243 240 240 238 235 231 229 227 224 216 207 203 203 201 198 193 183 180 177 168 154 130 100 78 54 53 61 73 84 91 96 88 77 78 82 80 77 77 77 78 79 79 81 83 82 82
223 229 239 236 234 239 242 245 246 248 249 249 247 244 241 238 238 239 240 241 241 241 242 241 242 243 243 243 244 245 246 249 249 252 254 256 257 253 251 248 244 243 241 237 235 231 227 222 216 212 209 207 206 202 201 200 201 201 199 191 172 139 109 60 62 80 92 98 97 93 87 79 83 86 82 80 79 77 79 79 78 79 81 82 82
226 234 242 235 233 238 240 244 245 247 248 246 245 242 240 238 238 239 239 240 239 240 240 239 240 242 242 242 242 243 245 248 249 252 256 256 256 253 253 252 248 246 242 238 235 232 227 221 218 218 214 211 211 208 209 213 215 216 213 206 199 190 186 138 94 123 111 109 108 100 89 82 87 87 84 83 81 79 79 79 78 78 78 80 82
228 238 242 235 235 238 240 243 245 246 245 244 243 241 240 238 239 238 237 238 238 240 240 241 241 242 242 241 242 243 242 244 246 249 255 258 255 250 250 253 253 247 241 238 236 233 227 221 220 221 217 214 214 213 216 221 222 222 221 218 216 213 209 192 158 158 131 123 125 114 97 89 93 91 86 86 83 81 81 80 78 77 78 79 80
234 241 241 236 237 239 241 244 245 245 245 243 241 240 240 240 239 237 235 236 238 240 240 241 241 242 242 241 240 241 240 239 241 245 252 256 254 247 246 250 251 247 243 240 239 234 226 222 222 223 221 218 217 218 222 225 224 226 227 226 225 226 225 217 221 193 154 145 147 131 109 99 102 99 93 90 86 84 83 82 80 78 77 78 79
239 243 240 237 239 242 245 247 246 246 246 244 243 242 241 239 238 236 236 236 237 237 237 238 240 240 239 236 234 236 237 235 237 243 249 252 251 248 246 249 250 251 250 247 244 237 228 225 225 226 225 222 222 224 227 227 227 230 230 230 231 231 230 225 229 218 186 174 174 167 147 129 120 110 104 99 94 90 87 84 82 79 77 77 77
243 243 241 239 242 246 249 250 248 249 247 244 243 244 241 238 238 236 236 238 236 234 236 236 235 233 229 227 229 233 234 234 237 241 247 249 248 249 248 250 252 254 256 254 248 239 231 229 229 228 228 227 227 228 229 228 230 234 235 235 233 230 230 229 231 226 207 194 190 184 171 157 152 132 120 116 108 99 91 86 85 83 79 77 76
242 244 243 243 249 251 251 250 250 250 245 242 241 241 242 240 240 237 236 238 237 236 236 233 226 219 219 223 230 234 236 240 240 241 245 247 247 250 250 250 252 256 258 256 248 240 235 232 232 232 232 231 230 230 230 231 233 236 239 238 234 233 235 235 232 227 212 201 200 203 203 198 201 193 164 147 135 117 101 91 89 86 81 78 76
242 246 248 249 251 252 250 249 251 247 242 241 238 240 240 237 238 238 238 237 239 239 232 225 218 214 219 228 236 241 243 243 243 243 243 246 248 249 251 252 254 257 256 252 247 243 240 236 235 235 235 234 233 233 232 233 235 237 238 238 237 237 239 240 236 228 219 214 216 221 224 223 224 222 215 198 178 162 143 118 97 86 80 79 76
245 250 252 251 251 255 253 248 245 242 242 238 234 238 237 236 240 239 235 233 236 235 226 222 222 223 230 237 244 248 246 241 243 247 244 245 248 247 248 251 254 255 251 247 247 246 243 240 238 238 238 237 237 235 234 234 236 237 237 238 239 238 240 242 235 229 225 226 228 227 228 228 231 231 228 226 218 207 204 210 225 223 68 68 73
249 252 254 254 253 255 254 249 247 243 241 237 235 240 239 235 233 230 229 229 231 229 223 222 225 232 239 243 247 248 247 245 245 246 246 248 248 244 245 247 250 251 249 247 248 248 246 244 242 242 242 241 239 237 236 236 236 237 237 237 237 237 242 241 231 229 230 231 234 232 232 233 233 234 234 236 237 233 229 228 236 249 270 291 314
252 255 256 260 259 257 254 252 253 243 235 235 235 236 232 225 224 229 231 232 231 228 224 223 228 237 241 242 245 248 249 247 243 241 244 246 242 240 243 248 252 253 253 252 251 250 250 249 248 248 246 243 241 239 237 237 237 237 236 236 236 238 242 240 233 232 233 234 238 237 237 238 236 237 236 238 241 244 243 238 241 249 262 273 270
253 256 260 267 265 260 254 250 247 235 234 236 232 231 228 225 231 234 231 229 228 226 226 229 236 242 241 242 248 252 249 243 241 239 240 240 237 240 246 251 257 260 260 259 255 254 255 256 255 253 250 246 242 240 238 237 237 236 236 235 235 239 241 240 237 235 236 237 239 241 242 241 239 240 239 240 243 246 247 247 246 248 255 261 260
253 256 262 266 266 263 250 247 247 238 237 236 230 230 229 230 231 228 227 228 228 229 233 238 243 244 244 247 252 253 248 244 242 238 233 233 237 244 251 256 261 264 264 263 260 259 260 260 258 253 250 247 243 241 239 238 237 236 235 234 235 238 238 238 238 236 238 239 239 241 243 243 243 243 243 245 246 247 248 248 249 250 253 254 254
253 256 260 259 261 262 251 247 248 239 235 232 228 227 226 229 229 229 232 233 233 235 237 241 244 245 249 251 251 249 245 240 236 231 229 236 244 251 256 259 263 264 263 263 262 263 262 260 258 252 248 248 248 247 243 238 236 235 234 234 236 238 238 238 238 236 237 239 241 243 245 245 245 246 247 247 246 247 248 248 249 250 250 250 251
254 257 257 257 259 257 249 243 241 233 228 226 225 227 231 234 235 238 237 235 237 237 238 242 244 246 248 246 242 238 233 229 227 229 236 246 252 256 260 261 264 264 260 260 261 264 264 262 258 254 252 251 251 250 246 239 234 235 235 234 236 237 237 237 237 236 238 241 243 245 245 244 245 247 248 248 247 249 249 248 249 249 248 248 249
254 257 256 257 255 248 241 236 236 231 226 227 232 237 241 240 239 240 238 239 240 239 241 242 239 237 234 231 229 228 229 229 230 236 243 250 255 258 262 264 263 263 262 260 260 261 261 258 254 253 253 251 252 249 244 240 235 236 235 235 236 236 236 236 236 237 238 241 244 245 245 244 245 247 248 249 250 251 251 250 249 249 247 247 249
254 255 255 253 246 240 235 233 234 233 232 236 240 242 243 242 241 240 240 239 237 239 238 231 227 224 224 224 224 230 238 240 240 245 248 251 256 260 263 265 263 262 263 259 258 261 257 253 254 255 249 247 251 247 243 240 237 236 234 235 236 235 236 235 235 236 237 241 242 244 245 246 247 248 250 251 251 252 252 251 250 249 248 247 249
252 249 250 247 239 237 235 235 233 232 236 240 242 242 241 241 241 239 235 230 229 230 225 221 222 221 223 228 232 238 243 247 248 252 254 254 258 261 262 262 262 264 264 256 256 261 260 259 259 255 244 243 247 243 244 242 235 236 235 234 234 235 235 233 234 234 235 239 242 243 245 248 249 249 251 251 251 251 251 251 249 249 249 248 249
247 244 246 243 237 235 234 234 235 236 238 241 243 242 241 240 236 231 225 222 224 224 219 220 224 227 230 234 240 243 243 247 251 255 259 259 258 259 259 259 261 265 262 256 257 261 264 261 255 252 245 243 241 237 245 243 235 235 236 235 234 236 234 226 229 234 235 238 241 243 244 246 248 249 250 250 250 250 250 250 248 248 249 248 249
243 242 244 242 239 238 237 237 238 241 240 240 240 239 239 237 229 223 221 221 221 221 221 224 229 236 238 238 243 244 242 246 251 254 258 260 259 257 258 259 262 264 261 259 261 263 263 258 252 248 242 237 233 233 241 243 237 234 235 236 234 238 237 227 231 238 239 242 241 241 243 244 246 248 249 249 249 248 247 247 246 245 248 249 249
243 243 243 240 241 240 238 238 238 240 240 238 237 236 236 232 225 220 217 217 217 219 225 229 233 237 239 242 246 243 242 245 249 252 254 258 260 259 260 262 264 263 260 262 263 262 260 256 248 240 235 229 225 229 236 240 238 233 233 235 235 240 239 232 235 237 236 238 235 237 242 243 246 248 249 249 249 248 246 245 245 245 246 248 249
241 242 243 240 243 242 236 236 237 237 236 235 234 233 232 227 221 216 213 214 217 223 228 231 235 239 243 247 248 242 242 245 249 252 253 257 260 261 262 263 263 261 260 262 261 260 257 251 240 231 227 222 223 227 232 235 230 228 232 233 235 237 232 229 231 227 226 230 231 233 238 241 243 246 248 248 248 248 246 244 246 247 248 248 250
240 241 243 242 244 242 237 237 236 234 234 232 229 227 227 223 219 216 215 218 222 228 232 236 241 246 247 247 246 243 245 248 250 252 254 258 260 261 262 262 263 262 262 261 259 256 250 243 233 227 224 223 230 228 230 237 224 223 232 230 233 231 226 229 227 222 224 228 231 233 236 237 239 242 245 247 248 249 248 246 248 249 250 250 251
240 241 243 244 243 239 238 238 234 233 233 230 226 224 224 222 220 219 219 224 227 233 240 244 247 248 245 245 245 245 246 248 250 253 256 259 260 260 260 261 263 265 263 258 254 251 246 241 231 227 226 226 229 223 229 236 220 222 229 222 232 229 222 225 224 226 227 228 229 233 238 240 242 243 242 245 249 250 250 250 250 249 251 252 252
241 242 243 243 240 236 237 235 231 232 230 226 222 219 219 217 218 221 222 225 228 235 242 245 246 244 243 247 248 246 246 247 249 252 255 258 260 260 259 259 262 264 261 255 253 249 240 235 230 227 221 219 224 223 229 227 215 226 229 224 240 234 223 228 229 232 229 229 233 235 240 243 245 246 243 248 251 251 251 252 252 251 253 253 254
242 242 241 240 236 235 235 231 229 229 224 219 214 212 214 214 217 220 219 220 223 228 233 236 241 241 244 248 247 247 247 248 250 250 254 256 258 260 258 256 260 259 257 254 250 242 230 228 229 222 214 216 223 224 228 223 218 235 232 232 249 242 232 238 238 239 234 236 239 238 244 244 243 246 249 254 254 252 253 254 255 255 255 255 257
242 240 239 237 234 233 233 228 225 224 220 215 210 209 212 212 213 211 208 208 207 210 218 228 234 238 246 247 244 247 247 247 248 249 253 254 255 257 253 253 256 254 251 252 246 235 227 226 224 220 220 224 226 225 230 227 226 242 240 241 254 244 241 251 249 249 244 245 244 242 244 240 240 246 251 254 257 258 257 256 257 258 259 258 261
240 238 235 235 233 230 228 223 219 217 216 212 207 206 205 205 204 200 197 192 190 194 202 209 215 237 253 247 246 248 248 245 246 252 254 251 251 250 246 247 250 249 249 249 244 234 227 226 225 227 228 230 231 228 231 232 235 243 241 245 249 234 240 256 260 259 252 248 249 250 248 244 245 247 249 253 259 263 261 259 261 264 264 262 264
239 235 232 232 231 227 222 216 211 210 209 205 202 200 198 199 197 195 191 183 183 186 181 186 204 257 275 256 258 257 255 251 246 251 253 247 245 244 244 247 247 248 249 245 241 234 228 228 230 233 233 235 236 233 234 234 235 236 235 239 240 240 253 261 265 267 260 253 256 260 256 253 252 249 252 257 260 263 262 260 263 266 265 264 268
237 234 232 231 229 223 214 208 206 206 204 200 196 194 194 194 192 191 187 185 191 187 179 187 201 223 337 307 290 280 272 269 260 256 258 251 242 242 249 253 251 250 250 245 241 237 232 232 233 233 236 239 238 237 236 231 228 230 234 241 245 254 263 262 266 271 269 267 267 266 257 249 253 256 258 259 258 259 259 258 261 264 263 265 269
234 233 233 232 229 220 208 201 202 202 200 197 194 191 191 191 190 193 193 193 200 198 193 198 202 206 17 9 340 329 311 297 289 275 271 263 250 251 257 257 253 253 252 246 244 240 236 236 236 235 237 240 238 239 239 233 231 233 239 250 257 262 265 263 265 268 270 276 277 272 255 242 251 258 254 251 252 256 257 258 259 259 262 266 271
232 232 234 234 229 220 206 198 198 198 197 197 194 192 191 191 193 198 199 197 198 199 201 205 211 230 266 324 329 333 331 323 316 298 284 272 263 263 262 259 256 254 251 247 246 244 241 238 237 236 237 238 239 240 240 238 237 239 243 254 258 260 264 261 261 265 267 271 276 273 256 245 253 254 242 234 239 247 250 256 261 260 263 271 277
232 231 233 231 227 220 206 198 197 196 196 196 195 194 193 193 197 199 199 196 198 204 211 217 224 242 258 285 300 311 322 324 328 319 301 282 275 276 270 266 261 255 251 248 248 248 245 241 238 236 236 237 241 242 242 242 241 242 247 255 257 259 261 254 254 263 264 266 276 275 259 250 252 244 227 219 225 239 247 258 277 277 274 280 285
230 231 231 228 224 217 205 197 196 195 195 196 196 196 195 197 199 200 200 202 210 217 222 226 234 250 262 276 289 297 306 307 313 317 306 293 290 292 289 280 266 258 257 254 252 252 249 246 242 239 238 238 241 243 244 245 245 244 245 251 256 258 256 247 248 259 264 265 270 266 258 255 249 236 220 214 221 242 252 267 295 297 288 287 292
229 231 232 226 218 211 203 196 195 194 195 197 198 199 203 207 203 200 204 209 216 224 229 237 246 258 265 273 282 286 288 289 290 290 291 294 293 290 292 293 278 264 261 259 258 257 252 249 247 245 243 241 241 243 246 249 249 246 245 250 258 257 248 241 244 253 262 267 263 257 258 256 244 220 203 207 233 257 271 284 290 292 291 289 292
227 230 228 220 211 207 203 195 192 194 195 198 202 205 209 209 202 200 207 214 222 231 239 249 256 261 265 272 278 280 280 276 273 272 277 285 290 287 287 291 285 272 265 260 258 258 255 253 252 249 248 246 245 246 248 251 251 247 247 251 258 255 245 242 246 245 249 256 257 255 247 236 230 224 229 254 267 268 276 287 288 290 293 295 297
223 225 220 214 211 207 202 194 192 194 196 201 205 205 203 201 201 206 216 223 229 234 242 252 257 260 264 272 278 280 279 273 271 272 272 274 280 285 285 290 290 279 270 261 254 256 258 257 256 254 252 250 249 249 246 247 249 248 247 248 252 251 246 248 248 243 241 240 241 245 234 228 240 252 259 266 269 267 272 281 289 294 294 298 303
222 219 214 212 210 204 200 195 194 195 197 202 203 203 202 201 209 220 226 230 232 235 243 251 256 260 264 272 277 277 276 272 273 274 273 272 277 286 287 293 297 285 271 262 250 254 261 261 261 259 256 254 251 248 244 243 246 246 246 247 248 249 248 248 246 242 238 232 233 234 233 239 250 259 262 264 271 277 281 285 288 291 292 297 304
219 209 203 202 201 199 197 194 194 197 199 201 202 205 203 200 210 224 228 230 233 236 243 249 255 260 265 269 272 275 277 275 275 277 277 275 277 285 286 286 292 284 269 261 251 253 262 264 265 262 259 258 253 249 245 244 245 244 245 246 245 242 242 243 243 239 238 237 235 232 234 244 251 255 259 263 272 280 286 291 290 289 290 295 304
208 195 191 190 192 195 192 191 195 199 200 199 201 203 201 202 215 228 228 229 232 236 241 247 254 260 265 269 272 277 281 279 279 279 278 274 272 279 284 284 287 282 269 263 259 258 262 266 269 266 262 260 256 253 251 248 246 245 243 243 241 238 237 239 238 235 238 239 235 234 236 238 244 252 255 261 272 277 281 287 289 289 291 295 301